Location: Kerguer�zec
(48.4509°N, 4.7600°W)
Time: 13:57:09
(UTC+00:00)

ISS - Visible Passes

Search period start: 25 February 2021 00:00
Search period end: 07 March 2021 00:00
Orbit: 417 x 422 km, 51.6° (Epoch: 26 February)

Date Brightness Start Highest point End Pass type
(mag) Time Alt. Az. Time Alt. Az. Time Alt. Az.
25 Feb -3.4 05:23:12 44° SSW 05:23:58 60° SSE 05:27:18 10° ENE visible
26 Feb -1.9 04:37:43 29° E 04:37:43 29° E 04:39:46 10° ENE visible
26 Feb -3.5 06:10:41 15° W 06:13:21 59° NNW 06:16:41 10° ENE visible
27 Feb -3.8 05:25:08 51° W 05:25:51 74° NNW 05:29:13 10° ENE visible
28 Feb -2.3 04:39:31 38° ENE 04:39:31 38° ENE 04:41:45 10° ENE visible
28 Feb -3.1 06:12:28 13° WNW 06:15:22 47° N 06:18:39 10° ENE visible
01 Mar -0.4 03:53:52 13° ENE 03:53:52 13° ENE 03:54:14 10° ENE visible
01 Mar -3.3 05:26:49 36° WNW 05:27:49 51° N 05:31:07 10° ENE visible
02 Mar -2.6 04:41:08 41° NE 04:41:08 41° NE 04:43:36 10° ENE visible
02 Mar -3.1 06:14:05 10° WNW 06:17:22 49° N 06:20:39 10° E visible
03 Mar -0.6 03:55:25 15° ENE 03:55:25 15° ENE 03:56:04 10° ENE visible
03 Mar -3.1 05:28:23 28° NW 05:29:47 46° N 05:33:03 10° ENE visible
04 Mar -2.8 04:42:40 43° NNE 04:42:40 43° NNE 04:45:27 10° ENE visible
04 Mar -3.5 06:15:55 10° WNW 06:19:17 68° NNE 06:22:38 10° E visible
05 Mar -0.8 03:56:57 17° ENE 03:56:57 17° ENE 03:57:53 10° ENE visible
05 Mar -3.3 05:29:54 24° WNW 05:31:42 56° NNE 05:35:01 10° E visible
06 Mar -3.1 04:44:12 49° NNE 04:44:12 49° NNE 04:47:23 10° E visible
